Terminal Aerodrome Forecast
Issued by NWS Newport/Morehead City, NC

Home | Current Version | Previous Version | Text Only | Print | Product List | Glossary Off
Versions: 1 2 3 4 5 6 7 8 9 10 11 12 13 14 15 16 17 18

000
FTUS42 KMHX 270532
TAFEWN
TAF
KEWN 270532Z 2706/2806 18005KT P6SM SCT025 BKN040
     FM271700 19010G15KT P6SM VCSH BKN040
     FM272300 18005KT P6SM SCT040=

USA.gov is the U.S. government's official web portal to all federal, state and local government web resources and services.